CW3794 Weather Reports


Display with metric or nautical units.
time (UTC)temp
F
wind
direction
speed
MPH
gust
MPH
rain 1hr
in
rain 24hr
in
rain mn
in
humidity
%
barometer
mb
20171124220433 83 167 0.0 1.0 0.00 0.00 0.00 23 1012.6
20171124214908 83 167 0.0 1.0 0.00 0.00 0.00 23 1012.6
20171124214439 83 167 0.0 1.0 0.00 0.00 0.00 23 1012.6
20171124213410 82 167 0.0 1.0 0.00 0.00 0.00 23 1012.7
20171124212937 82 167 0.0 1.0 0.00 0.00 0.00 23 1012.8
20171124210916 82 166 0.0 0.0 0.00 0.00 0.00 23 1012.9
20171124204936 82 166 0.0 1.0 0.00 0.00 0.00 24 1013.1
20171124203436 82 165 0.0 0.0 0.00 0.00 0.00 23 1013.4
20171124202857 82 165 0.0 3.0 0.00 0.00 0.00 23 1013.4
20171124201356 82 172 0.0 1.0 0.00 0.00 0.00 23 1013.6
20171124200900 82 172 0.0 0.0 0.00 0.00 0.00 25 1013.7
20171124195916 81 173 0.0 2.0 0.00 0.00 0.00 23 1013.7
20171124195400 81 175 0.0 1.0 0.00 0.00 0.00 24 1013.9
20171124193922 81 215 0.0 1.0 0.00 0.00 0.00 25 1014.3
20171124193419 81 215 0.0 1.0 0.00 0.00 0.00 24 1014.3
20171124192913 81 215 0.0 0.0 0.00 0.00 0.00 24 1014.3
20171124192241 80 220 0.0 2.0 0.00 0.00 0.00 25 1014.5
20171124191430 80 226 0.0 2.0 0.00 0.00 0.00 25 1014.6
20171124190931 79 143 0.0 1.0 0.00 0.00 0.00 25 1014.6
20171124190409 79 141 0.0 1.0 0.00 0.00 0.00 26 1014.7
20171124185410 79 140 0.0 0.0 0.00 0.00 0.00 25 1014.9
20171124184427 79 139 0.0 0.0 0.00 0.00 0.00 26 1015.1
20171124183926 78 139 0.0 0.0 0.00 0.00 0.00 27 1015.1
20171124182909 78 139 0.0 4.0 0.00 0.00 0.00 27 1015.4
20171124182434 77 136 0.0 5.0 0.00 0.00 0.00 27 1015.5
20171124181407 77 155 1.0 6.0 0.00 0.00 0.00 26 1015.5
20171124180922 76 141 1.0 4.0 0.00 0.00 0.00 27 1015.4
20171124175926 76 152 0.0 4.0 0.00 0.00 0.00 27 1015.6
20171124172433 74 107 0.0 4.0 0.00 0.00 0.00 29 1015.7
20171124171911 74 78 0.0 1.0 0.00 0.00 0.00 28 1015.8
20171124170930 74 62 0.0 0.0 0.00 0.00 0.00 31 1015.7
20171124164934 73 62 0.0 0.0 0.00 0.00 0.00 32 1015.7
20171124164433 72 62 0.0 0.0 0.00 0.00 0.00 33 1015.8
20171124162900 71 62 0.0 0.0 0.00 0.00 0.00 34 1015.7
20171124162400 70 62 0.0 0.0 0.00 0.00 0.00 33 1015.6
20171124161431 68 61 0.0 0.0 0.00 0.00 0.00 36 1015.5
20171124160925 67 62 0.0 0.0 0.00 0.00 0.00 36 1015.5
20171124160404 67 62 0.0 0.0 0.00 0.00 0.00 37 1015.6
20171124155419 65 62 0.0 0.0 0.00 0.00 0.00 38 1015.6
20171124154923 65 62 0.0 0.0 0.00 0.00 0.00 39 1015.6
20171124152905 62 344 0.0 0.0 0.00 0.00 0.00 40 1015.5
20171124151942 61 344 0.0 2.0 0.00 0.00 0.00 39 1015.4
20171124150910 59 344 0.0 4.0 0.00 0.00 0.00 40 1015.3
20171124150404 59 344 0.0 4.0 0.00 0.00 0.00 41 1015.3
20171124145938 58 344 1.0 4.0 0.00 0.00 0.00 41 1015.2
20171124145409 57 342 0.0 4.0 0.00 0.00 0.00 42 1015.2
20171124143911 54 341 0.0 1.0 0.00 0.00 0.00 47 1015.1
20171124143429 54 341 0.0 0.0 0.00 0.00 0.00 47 1015.0
20171124142937 54 341 0.0 0.0 0.00 0.00 0.00 47 1015.0
20171124142425 54 341 0.0 0.0 0.00 0.00 0.00 46 1015.0
20171124141934 54 341 0.0 0.0 0.00 0.00 0.00 46 1015.0
20171124141441 54 341 0.0 1.0 0.00 0.00 0.00 46 1014.9
20171124135932 54 341 0.0 2.0 0.00 0.00 0.00 46 1015.0
20171124135434 54 341 0.0 2.0 0.00 0.00 0.00 45 1015.0
20171124134431 55 341 0.0 1.0 0.00 0.00 0.00 47 1014.9
20171124131925 54 341 0.0 0.0 0.00 0.00 0.00 46 1014.6
20171124131422 54 341 0.0 0.0 0.00 0.00 0.00 46 1014.6
20171124130939 54 341 0.0 0.0 0.00 0.00 0.00 46 1014.5
20171124125935 54 341 0.0 0.0 0.00 0.00 0.00 46 1014.4
20171124125403 54 341 0.0 1.0 0.00 0.00 0.00 46 1014.4
20171124124912 54 341 0.0 1.0 0.00 0.00 0.00 45 1014.4
20171124124431 54 341 0.0 0.0 0.00 0.00 0.00 46 1014.4
20171124123445 54 342 0.0 0.0 0.00 0.00 0.00 45 1014.4
20171124122443 55 342 0.0 1.0 0.00 0.00 0.00 46 1014.4
20171124121926 55 342 0.0 1.0 0.00 0.00 0.00 45 1014.5
20171124121430 55 341 0.0 0.0 0.00 0.00 0.00 45 1014.6
20171124120910 55 342 0.0 0.0 0.00 0.00 0.00 46 1014.6
20171124115932 55 340 0.0 0.0 0.00 0.00 0.00 45 1014.7
20171124115223 55 342 0.0 0.0 0.00 0.00 0.00 45 1014.6
20171124114435 55 342 0.0 0.0 0.00 0.00 0.00 44 1014.6
20171124113900 55 341 0.0 0.0 0.00 0.00 0.00 44 1014.6
20171124112900 56 341 0.0 0.0 0.00 0.00 0.00 44 1014.6
20171124111405 56 342 0.0 0.0 0.00 0.00 0.00 43 1014.4
20171124110438 57 341 0.0 0.0 0.00 0.00 0.00 42 1014.3
20171124105423 57 342 0.0 0.0 0.00 0.00 0.00 42 1014.3
20171124103928 58 341 0.0 0.0 0.00 0.00 0.00 41 1014.1
20171124102907 58 342 0.0 0.0 0.00 0.00 0.00 41 1014.1
20171124101914 58 341 0.0 2.0 0.00 0.00 0.00 41 1014.2
20171124101440 58 342 0.0 0.0 0.00 0.00 0.00 41 1014.2
20171124095916 59 341 0.0 0.0 0.00 0.00 0.00 41 1014.3
20171124095418 59 341 0.0 0.0 0.00 0.00 0.00 41 1014.3
20171124094433 60 341 0.0 0.0 0.00 0.00 0.00 40 1014.3
20171124093434 60 341 0.0 0.0 0.00 0.00 0.00 39 1014.4
20171124092436 61 341 0.0 4.0 0.00 0.00 0.00 38 1014.7
20171124091923 60 341 2.0 5.0 0.00 0.00 0.00 39 1014.7
20171124091443 60 341 1.0 5.0 0.00 0.00 0.00 39 1014.7
20171124090402 60 339 1.0 3.0 0.00 0.00 0.00 39 1014.6
20171124085405 60 339 0.0 1.0 0.00 0.00 0.00 39 1014.6
20171124084924 60 340 0.0 0.0 0.00 0.00 0.00 39 1014.7
20171124084405 60 339 0.0 1.0 0.00 0.00 0.00 39 1014.7
20171124081931 61 339 0.0 3.0 0.00 0.00 0.00 39 1014.6
20171124081413 61 339 0.0 3.0 0.00 0.00 0.00 38 1014.7
20171124080914 61 340 0.0 3.0 0.00 0.00 0.00 38 1014.7
20171124075402 61 339 2.0 5.0 0.00 0.00 0.00 38 1014.9
20171124073602 61 328 2.0 5.0 0.00 0.00 0.00 39 1014.9
20171124073128 61 322 0.0 1.0 0.00 0.00 0.00 39 1015.0
20171124071923 62 322 0.0 2.0 0.00 0.00 0.00 38 1015.0
20171124071402 62 319 0.0 1.0 0.00 0.00 0.00 38 1015.0
20171124070859 62 319 0.0 2.0 0.00 0.00 0.00 38 1015.0
20171124070411 63 319 0.0 2.0 0.00 0.00 0.00 38 1015.0
20171124065923 63 318 0.0 2.0 0.00 0.00 0.00 38 1015.1
20171124064402 64 318 0.0 1.0 0.00 0.00 0.00 36 1015.1
20171124062422 64 315 2.0 5.0 0.00 0.00 0.00 36 1015.0
20171124061922 64 311 1.0 6.0 0.00 0.00 0.00 36 1015.0
20171124060926 64 301 2.0 4.0 0.00 0.00 0.00 36 1015.1
20171124055858 64 300 3.0 5.0 0.00 0.00 0.00 36 1015.1
20171124055424 64 295 2.0 4.0 0.00 0.00 0.00 36 1015.1
20171124054912 64 296 2.0 4.0 0.00 0.00 0.00 36 1015.1
20171124053854 65 293 2.0 6.0 0.00 0.00 0.00 36 1015.1
20171124052915 65 291 2.0 4.0 0.00 0.00 0.00 36 1015.1
20171124051924 65 291 1.0 5.0 0.00 0.00 0.00 36 1015.2
20171124050910 65 292 0.0 5.0 0.00 0.00 0.00 35 1015.2
20171124050403 66 287 1.0 5.0 0.00 0.00 0.00 35 1015.3
20171124045915 66 288 2.0 5.0 0.00 0.00 0.00 35 1015.3
20171124044908 65 284 3.0 5.0 0.00 0.00 0.00 35 1015.1
20171124044403 66 282 2.0 4.0 0.00 0.00 0.00 36 1015.1
20171124043933 66 281 2.0 4.0 0.00 0.00 0.00 35 1015.1
20171124043407 66 280 2.0 4.0 0.00 0.00 0.00 35 1015.1
20171124042400 66 277 2.0 4.0 0.00 0.00 0.00 35 1015.1
20171124041957 66 275 1.0 4.0 0.00 0.00 0.00
20171124041407 66 273 1.0 4.0 0.00 0.00 0.00 35 1015.1
20171124040425 66 273 0.0 2.0 0.00 0.00 0.00 35 1015.0
20171124035928 66 273 0.0 2.0 0.00 0.00 0.00 35 1015.1
20171124035410 66 273 0.0 2.0 0.00 0.00 0.00 35 1015.1
20171124033903 67 275 1.0 3.0 0.00 0.00 0.00 34 1015.0
20171124032352 68 273 0.0 3.0 0.00 0.00 0.00 34 1014.9
20171124031935 68 272 1.0 3.0 0.00 0.00 0.00 33 1014.9
20171124031405 68 272 0.0 3.0 0.00 0.00 0.00 33 1015.0
20171124030937 68 270 1.0 3.0 0.00 0.00 0.00 34 1014.9
20171124030356 68 265 0.0 1.0 0.00 0.00 0.00 34 1015.0
20171124025434 68 265 0.0 1.0 0.00 0.00 0.00 34 1015.0
20171124024431 68 265 0.0 1.0 0.00 0.00 0.00 35 1015.0
20171124023858 68 265 0.0 1.0 0.00 0.00 0.00 35 1014.9
20171124022433 68 265 0.0 0.0 0.00 0.00 0.00 36 1014.9
20171124021924 69 265 0.0 0.0 0.00 0.00 0.00 36 1014.7
20171124020421 69 265 0.0 0.0 0.00 0.00 0.00 35 1014.7
20171124015854 70 265 0.0 0.0 0.00 0.00 0.00 35 1014.7
20171124015356 70 265 0.0 0.0 0.00 0.00 0.00 35 1014.7
20171124014930 71 265 0.0 0.0 0.00 0.00 0.00 34 1014.7
20171124014417 71 265 0.0 0.0 0.00 0.00 0.00 34 1014.7
20171124013914 72 265 0.0 0.0 0.00 0.00 0.00 34 1014.6
20171124013413 72 265 0.0 0.0 0.00 0.00 0.00 33 1014.6
20171124011853 73 265 0.0 0.0 0.00 0.00 0.00 32 1014.7
20171124011411 74 265 0.0 0.0 0.00 0.00 0.00 32 1014.8
20171124010426 75 265 0.0 0.0 0.00 0.00 0.00 32 1014.8
20171124005936 75 265 0.0 0.0 0.00 0.00 0.00 31 1014.8
20171124004425 78 265 0.0 0.0 0.00 0.00 0.00 29 1014.8
20171124002413 81 265 0.0 0.0 0.00 0.00 0.00 26 1014.5
20171124000907 82 265 0.0 1.0 0.00 0.00 0.00 26 1014.6
20171123235405 83 265 0.0 0.0 0.00 0.00 0.00 25 1014.7
20171123234419 83 265 0.0 1.0 0.00 0.00 0.00 25 1014.7
20171123233905 84 265 0.0 1.0 0.00 0.00 0.00 24 1014.8
20171123233422 84 265 0.0 0.0 0.00 0.00 0.00 25 1014.9
20171123232434 84 265 0.0 5.0 0.00 0.00 0.00 24 1014.9
20171123231917 84 265 0.0 5.0 0.00 0.00 0.00 24 1014.9
20171123231402 84 262 0.0 1.0 0.00 0.00 0.00 24 1014.9
20171123225907 84 262 0.0 1.0 0.00 0.00 0.00 24 1015.0
20171123224924 84 262 0.0 2.0 0.00 0.00 0.00 24 1015.0
20171123224354 84 262 0.0 2.0 0.00 0.00 0.00 24 1015.0
20171123223920 84 262 0.0 1.0 0.00 0.00 0.00 24 1015.1
20171123223418 84 263 0.0 0.0 0.00 0.00 0.00 24 1015.1
20171123222930 84 262 0.0 1.0 0.00 0.00 0.00 24 1015.2
20171123222407 84 263 0.0 4.0 0.00 0.00 0.00 24 1015.3
20171123221412 84 244 1.0 3.0 0.00 0.00 0.00 24 1015.4
20171123220908 84 241 0.0 4.0 0.00 0.00 0.00 24 1015.4